[[{"header":{"parameterUnit":"m.s-1","parameterCategory":1,"la1":30.2991,"la2":30.254,"lo1":-89.0895,"lo2":-89.0444,"dy":0.0017,"dx":0.0017,"nx":28,"ny":28,"refTime":"2025-12-10T09:00:00:Z","depth":0,"parameterNumber":2,"parameterNumberName":"U-component_of_WINDS"},"data":[0,0,0,0,0,0,0,0,0,0,0,0,0,0,0,0,0,0,0,0,0,0,0,0,0,0,0,0,0,0,0,0,0,0,0,0,0,0,0,0,0,0,0,0,0,0,0,0,0,0,0,0,0,0,0,0,0,0,3.7895,3.7896,0,3.803,3.8032,3.8033,3.7983,3.798,3.7977,3.7974,3.8118,3.8124,3.8131,0,0,0,0,0,0,0,0,0,0,0,0,0,3.7598,3.7603,3.7895,3.7896,3.7898,3.803,3.8032,3.8034,3.7983,3.798,3.7976,3.7972,3.8116,3.8123,3.8131,0,0,0,0,0,0,0,0,0,0,0,0,0,3.7729,3.7605,3.7894,3.7889,3.789,3.8029,3.8032,3.8034,3.7984,3.798,3.7975,3.7971,3.8113,3.8123,3.8133,3.8288,0,0,3.8163,3.8168,0,0,0,0,0,0,0,0,3.7722,3.774,3.7888,3.7889,3.7891,3.7985,3.798,3.8119,3.7985,3.7949,3.7974,3.7968,3.8078,3.809,3.8126,3.8294,3.8301,3.8164,3.817,3.8175,3.8178,0,0,0,0,0,0,0,3.7713,3.7734,3.7948,3.789,3.7892,3.7881,3.7895,3.8006,3.8038,3.7951,3.7948,3.7964,3.8077,3.8116,3.8129,3.8303,3.8164,3.8173,3.8179,3.8183,3.8606,3.8611,0,0,0,0,0,0,3.7703,3.7727,3.7944,3.7952,3.7793,3.789,3.7905,3.7959,3.8036,3.8043,3.7968,3.7962,3.8101,3.8117,3.8134,3.8322,3.8175,3.8184,3.819,3.8601,3.8607,3.8613,0,0,0,0,0,0,3.7696,3.7722,3.7939,3.7839,3.7866,3.79,3.7961,3.7964,3.8003,3.8049,3.8055,3.8002,3.8098,3.812,3.825,3.8326,3.8189,3.8198,3.8595,3.8603,3.861,3.8697,0,0,0,0,0,0,3.7688,3.772,3.7779,3.784,3.7871,3.8051,3.7966,3.797,3.802,3.8013,3.8082,3.8089,3.8096,3.8235,3.826,3.8337,3.8206,3.8588,3.8599,3.8608,3.8688,3.8707,3.8724,0,0,0,0,0,3.7678,3.7799,3.7782,3.7808,3.7944,3.8055,3.8073,3.8077,3.8026,3.8086,3.8115,3.8087,3.8313,3.8249,3.8276,3.8358,3.8584,3.8596,3.8607,3.868,3.8704,3.8723,0,0,0,0,0,0,3.7747,3.7807,3.7789,3.7933,3.7989,3.8047,3.8122,3.8102,3.8175,3.8166,3.8169,3.8186,3.832,3.8351,3.8279,3.8512,3.8441,3.8459,3.8487,3.851,3.8527,3.8518,3.8214,0,0,0,0,0,3.7778,3.7862,3.7911,3.8034,3.8062,3.8088,3.8136,3.8134,3.8194,3.8218,3.8256,3.8316,3.8401,3.8457,3.8537,3.8692,3.8707,3.8762,3.8779,3.8794,3.881,3.8895,3.8921,3.8652,3.8651,3.8651,0,0,3.7846,3.7889,3.7942,3.8049,3.8092,3.818,3.8108,3.8204,3.827,3.8233,3.8358,3.8388,3.8456,3.8599,3.8664,3.863,3.8887,3.8809,3.882,3.8828,3.891,3.8935,3.8958,3.8659,3.8658,3.8657,0,0,3.8013,3.8054,3.8161,3.8205,3.8271,3.8287,3.8313,3.8373,3.8392,3.8517,3.849,3.857,3.8715,3.8764,3.8808,3.8994,3.8972,3.902,3.9115,3.9198,3.9219,3.9238,3.9306,3.933,3.9036,3.9036,3.9036,0,3.8089,3.8219,3.8219,3.8317,3.8366,3.8334,3.8443,3.8487,3.8577,3.8612,3.8571,3.8753,3.8796,3.8951,3.8996,3.9033,3.9064,3.9013,3.9216,3.9235,3.9253,3.9318,3.9343,3.9042,3.9041,3.904,3.904,0,3.831,3.8401,3.848,3.8566,3.8623,3.8726,3.8743,3.8801,3.8794,3.8815,3.8943,3.8994,3.9084,3.912,3.9115,3.9275,3.9252,3.9214,3.9142,3.9284,3.9345,3.937,3.905,3.9048,3.9046,3.9045,0,0,3.8527,3.861,3.8639,3.8678,3.8748,3.8819,3.8922,3.9008,3.9059,3.9122,3.9209,3.9332,3.9298,3.9348,3.9348,3.9421,3.9567,3.9374,3.9376,3.941,3.9748,3.9777,3.9806,3.9551,3.9556,3.956,3.9743,0,3.8701,3.888,3.8882,3.9047,3.9132,3.9102,3.9192,3.9246,3.9268,3.9344,3.9369,3.9457,3.9403,3.9433,3.9504,3.9534,3.9635,3.9521,3.9635,3.9639,3.9621,3.9838,3.9869,4.004,3.9767,3.9771,3.9774,0,3.8929,3.8997,3.9171,3.9229,3.9264,3.9345,3.9424,3.9497,3.9558,3.9569,3.9624,3.9614,3.972,3.9644,3.9792,3.9714,3.9761,3.9783,3.9789,3.9802,3.9716,3.9858,4.0094,4.012,3.9811,3.9808,3.9805,0,3.9072,3.9207,3.9328,3.9362,3.9433,3.949,3.9522,3.9578,3.963,3.97,3.9735,3.9817,3.9863,3.9927,3.994,3.9883,4.0089,4.0013,4.0103,4.0103,4.0149,4.0146,4.0398,4.0176,4.0176,4.0175,4.0175,0,3.9267,3.9375,3.9393,3.9468,3.9588,3.959,3.9709,3.9737,3.9787,3.9868,3.9848,3.9925,3.9935,4.0016,4.0026,4.0148,4.0168,4.0182,4.0184,4.0185,4.0183,4.0217,4.0206,4.0182,4.0181,4.0179,4.0178,0,3.9448,3.9464,3.9595,3.965,3.9667,3.9753,3.9801,3.9874,3.9892,3.9995,4.002,4.0051,4.0144,4.0162,4.0272,4.0279,4.0425,4.0414,4.0405,4.0404,4.0493,4.0485,4.0777,4.0816,4.0567,4.0569,4.0571,0,3.9573,3.9654,3.9718,3.977,3.9805,3.9889,3.9941,3.9946,4.0002,4.0078,4.0142,4.0232,4.0305,4.0456,4.0489,4.0574,4.0566,4.0662,4.0579,4.0578,4.057,4.0566,4.0575,4.0679,4.0682,4.0684,4.0686,0,3.9793,3.9797,3.9872,3.9951,4.0014,4.0077,4.0136,4.018,4.0194,4.0258,4.0352,4.0408,4.052,4.0612,4.0696,4.0731,4.0713,4.0711,4.0737,4.074,4.0731,4.0739,4.045,4.0705,4.0703,4.0702,4.0701,4.07,3.995,4.0022,4.0078,4.0163,4.0208,4.0264,4.0335,4.0362,4.044,4.0531,4.0529,4.0633,4.0692,4.0803,4.0844,4.0926,4.0896,4.0933,4.0942,4.0952,4.0961,4.0717,4.0942,4.0941,4.0941,4.094,4.094,0,4.0171,4.0205,4.0283,4.0366,4.0434,4.0407,4.0471,4.053,4.0621,4.0677,4.0749,4.0858,4.0946,4.0986,4.1073,4.1131,4.1125,4.1154,4.1151,4.116,4.0982,4.0952,4.1158,4.1158,4.1158,4.1158,4.1158,4.1158,4.0294,4.0413,4.0424,4.0567,4.06,4.07,4.074,4.0792,4.0837,4.0959,4.1031,4.1055,4.1106,4.1196,4.1277,4.1286,4.132,4.1354,4.136,4.1194,4.1172,4.1151,4.1123,4.1361,4.1362,4.1531,4.1533,4.1534]},{"header":{"parameterUnit":"m.s-1","parameterCategory":1,"la1":30.2991,"la2":30.254,"lo1":-89.0895,"lo2":-89.0444,"dy":0.0017,"dx":0.0017,"nx":28,"ny":28,"refTime":"2025-12-10T09:00:00:Z","depth":0,"parameterNumber":3,"parameterNumberName":"V-component_of_WINDS"},"data":[0,0,0,0,0,0,0,0,0,0,0,0,0,0,0,0,0,0,0,0,0,0,0,0,0,0,0,0,0,0,0,0,0,0,0,0,0,0,0,0,0,0,0,0,0,0,0,0,0,0,0,0,0,0,0,0,0,0,0.4391,0.4391,0,0.4362,0.4361,0.4361,0.435,0.435,0.435,0.435,0.4315,0.4314,0.4313,0,0,0,0,0,0,0,0,0,0,0,0,0,0.4434,0.4433,0.4391,0.4391,0.439,0.4362,0.4361,0.4361,0.435,0.435,0.435,0.435,0.4315,0.4314,0.4313,0,0,0,0,0,0,0,0,0,0,0,0,0,0.4411,0.4433,0.4391,0.4382,0.438,0.4362,0.4361,0.4361,0.435,0.435,0.435,0.435,0.4316,0.4314,0.4312,0.43,0,0,0.4308,0.4307,0,0,0,0,0,0,0,0,0.4412,0.4409,0.4383,0.4382,0.4381,0.436,0.4363,0.434,0.435,0.4361,0.435,0.435,0.4329,0.4327,0.4321,0.4298,0.4297,0.4308,0.4307,0.4306,0.4306,0,0,0,0,0,0,0,0.4414,0.441,0.4379,0.4383,0.4381,0.4377,0.4374,0.4359,0.4344,0.436,0.4359,0.4356,0.4329,0.4322,0.432,0.4296,0.4308,0.4306,0.4305,0.4305,0.4262,0.4262,0,0,0,0,0,0,0.4417,0.4412,0.438,0.4378,0.4397,0.4376,0.4373,0.4366,0.4345,0.4342,0.4356,0.4356,0.4325,0.4321,0.4318,0.4302,0.4306,0.4305,0.4304,0.4262,0.4262,0.4261,0,0,0,0,0,0,0.4418,0.4415,0.4381,0.4395,0.439,0.4376,0.4368,0.4366,0.4359,0.4342,0.4339,0.4352,0.4325,0.4321,0.4305,0.4301,0.4304,0.4302,0.4262,0.4262,0.4262,0.427,0,0,0,0,0,0,0.442,0.4415,0.4411,0.4395,0.439,0.437,0.4368,0.4365,0.4357,0.4356,0.4337,0.4334,0.4324,0.4307,0.4303,0.4299,0.4301,0.4262,0.4262,0.4262,0.427,0.427,0.427,0,0,0,0,0,0.4421,0.4413,0.4411,0.4407,0.4385,0.437,0.4366,0.4357,0.4357,0.4352,0.4341,0.4335,0.4302,0.4306,0.4301,0.4296,0.4263,0.4262,0.4262,0.427,0.427,0.427,0,0,0,0,0,0,0.4428,0.4411,0.4408,0.4395,0.4384,0.4368,0.4361,0.4357,0.4344,0.4344,0.4331,0.4326,0.4312,0.4302,0.4307,0.4283,0.4282,0.428,0.4289,0.4289,0.4289,0.4291,0.43,0,0,0,0,0,0.4428,0.4419,0.4404,0.4394,0.4389,0.4376,0.4369,0.4363,0.435,0.4345,0.4332,0.4319,0.4306,0.4297,0.4284,0.4268,0.4264,0.4263,0.4263,0.4263,0.4261,0.4252,0.4252,0.426,0.426,0.426,0,0,0.4428,0.4417,0.4412,0.4395,0.4386,0.4375,0.4372,0.4361,0.4352,0.4342,0.4328,0.4318,0.4302,0.4287,0.4279,0.4278,0.4258,0.4262,0.4262,0.4261,0.4252,0.4251,0.425,0.426,0.426,0.426,0,0,0.4422,0.4413,0.4404,0.4395,0.4382,0.4374,0.4372,0.4356,0.435,0.4335,0.4328,0.4317,0.4294,0.4283,0.4275,0.4266,0.426,0.4262,0.4261,0.4253,0.4252,0.4251,0.4248,0.4247,0.426,0.426,0.426,0,0.4422,0.4408,0.44,0.4389,0.4382,0.4374,0.4364,0.4355,0.4338,0.4332,0.4332,0.4304,0.4292,0.4274,0.4272,0.4266,0.4262,0.4263,0.4253,0.4252,0.4252,0.4248,0.4247,0.4261,0.4261,0.4261,0.4261,0,0.4409,0.4399,0.4393,0.4378,0.437,0.436,0.4349,0.4341,0.4336,0.4327,0.4312,0.4299,0.4283,0.4278,0.4271,0.4259,0.4259,0.4256,0.4255,0.4251,0.4248,0.4246,0.4261,0.4261,0.4261,0.4261,0,0,0.4406,0.4388,0.4385,0.4379,0.4364,0.4355,0.4344,0.433,0.4324,0.4312,0.4302,0.4283,0.4281,0.4271,0.4264,0.4257,0.425,0.4255,0.4254,0.4254,0.4235,0.4237,0.4236,0.4246,0.4246,0.4246,0.4236,0,0.4397,0.438,0.4372,0.4357,0.4347,0.434,0.4331,0.432,0.4312,0.4301,0.4292,0.4279,0.4277,0.4271,0.4264,0.4253,0.4246,0.4253,0.4236,0.4235,0.424,0.4234,0.4236,0.4227,0.4235,0.4235,0.4234,0,0.4385,0.4375,0.436,0.4347,0.4342,0.4334,0.4321,0.4311,0.4299,0.4293,0.4283,0.4277,0.4264,0.4264,0.4246,0.4251,0.4243,0.4237,0.4236,0.4233,0.4234,0.423,0.4224,0.4223,0.4232,0.4232,0.4233,0,0.4384,0.4366,0.4355,0.4349,0.4334,0.4328,0.4321,0.4309,0.4301,0.4289,0.4284,0.427,0.4262,0.4251,0.424,0.4242,0.4223,0.4222,0.4217,0.4217,0.4213,0.4213,0.4205,0.4209,0.4209,0.4209,0.4209,0,0.4375,0.4366,0.4354,0.4347,0.4336,0.4328,0.4317,0.4309,0.4298,0.4288,0.4281,0.4272,0.4259,0.4247,0.4239,0.4225,0.4221,0.4215,0.4213,0.4216,0.4216,0.421,0.421,0.4208,0.4208,0.4209,0.4209,0,0.4371,0.4363,0.435,0.4337,0.4334,0.4326,0.4315,0.4307,0.4299,0.4287,0.4283,0.4271,0.4257,0.4246,0.4227,0.4221,0.4207,0.4204,0.4212,0.421,0.4205,0.4206,0.4192,0.419,0.4196,0.4196,0.4196,0,0.4366,0.4359,0.4346,0.434,0.4333,0.4323,0.4316,0.4307,0.4299,0.4285,0.4279,0.4265,0.4254,0.4232,0.422,0.4206,0.4203,0.4199,0.4201,0.4204,0.4202,0.4203,0.4202,0.4199,0.4199,0.4199,0.4199,0,0.4357,0.4354,0.4344,0.4334,0.4326,0.4316,0.4307,0.4302,0.4291,0.4283,0.427,0.4261,0.4244,0.423,0.4215,0.4206,0.42,0.4199,0.4197,0.4199,0.4203,0.4201,0.4211,0.4199,0.4199,0.4199,0.4199,0.4199,0.4352,0.4345,0.4335,0.4325,0.4318,0.4309,0.4301,0.4294,0.4283,0.4269,0.4265,0.4251,0.4239,0.4218,0.4209,0.4198,0.4197,0.4194,0.4193,0.4192,0.4193,0.4206,0.4195,0.4195,0.4195,0.4195,0.4195,0,0.4342,0.4336,0.4327,0.4315,0.4306,0.4304,0.4294,0.4286,0.4275,0.4265,0.4255,0.424,0.4227,0.4215,0.4201,0.4194,0.4191,0.419,0.419,0.4188,0.4195,0.4198,0.4193,0.4193,0.4193,0.4193,0.4193,0.4193,0.4336,0.4325,0.4321,0.4306,0.4299,0.4288,0.4282,0.4274,0.4266,0.425,0.424,0.4233,0.4221,0.4207,0.4194,0.4191,0.4186,0.4186,0.4182,0.4188,0.4188,0.4188,0.4191,0.4185,0.4185,0.4176,0.4176,0.4176]}]]